JBU605 KEWR-KFLL

Flight info

Callsign JBU605
Flight time 2h 24m
Altitude 36000
Route ELVAE NECCK WHITE Q409 CRPLR KOOKI Q161 CHIEZ Y291 MAJIK CUUDA3
Aircraft A320/M-SDE3FGHIRWY/LB1

Departure

Time 2026-04-21 12:39
Airport Newark Liberty International Airport (KEWR)

Arrival

Time 2026-04-21 15:03
Airport Fort Lauderdale Hollywood International Airport (KFLL)
Time Latitude Longitude Altitude Speed Heading
2026-04-21 12:31 40.69090 -74.17480 10 ft 0 kts 113°
2026-04-21 12:33 40.69085 -74.17464 10 ft 6 kts 114°
2026-04-21 12:33 40.69060 -74.17394 10 ft 11 kts 116°
2026-04-21 12:33 40.69023 -74.17293 10 ft 13 kts 115°
2026-04-21 12:34 40.68963 -74.17216 10 ft 13 kts 185°
2026-04-21 12:34 40.68878 -74.17255 10 ft 13 kts 204°
2026-04-21 12:34 40.68790 -74.17314 10 ft 14 kts 207°
2026-04-21 12:34 40.68693 -74.17380 10 ft 16 kts 207°
2026-04-21 12:35 40.68592 -74.17448 10 ft 17 kts 207°
2026-04-21 12:35 40.68480 -74.17513 10 ft 17 kts 204°
2026-04-21 12:35 40.68371 -74.17581 10 ft 17 kts 206°
2026-04-21 12:35 40.68257 -74.17652 10 ft 18 kts 206°
2026-04-21 12:36 40.68160 -74.17713 10 ft 14 kts 205°
2026-04-21 12:36 40.68068 -74.17771 10 ft 15 kts 206°
2026-04-21 12:36 40.67973 -74.17831 10 ft 14 kts 206°
2026-04-21 12:36 40.67878 -74.17891 10 ft 15 kts 206°
2026-04-21 12:37 40.67782 -74.17950 10 ft 15 kts 205°
2026-04-21 12:37 40.67686 -74.18010 10 ft 12 kts 206°
2026-04-21 12:37 40.67633 -74.18042 10 ft 5 kts 203°
2026-04-21 12:37 40.67593 -74.18024 11 ft 8 kts 140°
2026-04-21 12:38 40.67564 -74.17946 10 ft 6 kts 84°
2026-04-21 12:38 40.67594 -74.17911 10 ft 3 kts 24°
2026-04-21 12:38 40.67646 -74.17880 11 ft 36 kts 26°
2026-04-21 12:38 40.68106 -74.17590 11 ft 107 kts 25°
2026-04-21 12:39 40.68974 -74.17044 17 ft 163 kts 26°
2026-04-21 12:39 40.70025 -74.16344 547 ft 170 kts 26°
2026-04-21 12:39 40.70924 -74.15455 1438 ft 162 kts 49°
2026-04-21 12:39 40.71661 -74.14387 2130 ft 163 kts 40°
2026-04-21 12:40 40.72594 -74.13434 2575 ft 179 kts 36°
2026-04-21 12:40 40.73653 -74.12437 3018 ft 196 kts 35°
2026-04-21 12:40 40.74842 -74.11327 3398 ft 219 kts 36°
2026-04-21 12:40 40.76139 -74.10148 3903 ft 237 kts 29°
2026-04-21 12:41 40.77737 -74.09471 4437 ft 252 kts
2026-04-21 12:41 40.79431 -74.10022 5283 ft 255 kts 328°
2026-04-21 12:41 40.80647 -74.11648 6251 ft 256 kts 301°
2026-04-21 12:41 40.81147 -74.13855 7184 ft 260 kts 275°
2026-04-21 12:42 40.80783 -74.16209 8053 ft 271 kts 248°
2026-04-21 12:42 40.79545 -74.18117 8840 ft 286 kts 218°
2026-04-21 12:42 40.77669 -74.18988 9577 ft 301 kts 186°
2026-04-21 12:42 40.75563 -74.18584 10322 ft 309 kts 166°
2026-04-21 12:43 40.73465 -74.17736 10785 ft 325 kts 164°
2026-04-21 12:43 40.71271 -74.16824 11133 ft 342 kts 167°
2026-04-21 12:43 40.68887 -74.16561 11431 ft 351 kts 194°
2026-04-21 12:43 40.66621 -74.17744 11819 ft 352 kts 219°
2026-04-21 12:44 40.64654 -74.19644 12461 ft 355 kts 223°
2026-04-21 12:44 40.62615 -74.21545 13152 ft 361 kts 220°
2026-04-21 12:44 40.60492 -74.23302 13797 ft 367 kts 217°
2026-04-21 12:44 40.58282 -74.24989 14401 ft 373 kts 216°
2026-04-21 12:45 40.55925 -74.26518 14971 ft 386 kts 203°
2026-04-21 12:45 40.53227 -74.26924 15524 ft 403 kts 178°
2026-04-21 12:45 40.50476 -74.25979 16152 ft 410 kts 161°
2026-04-21 12:45 40.47836 -74.24578 16714 ft 415 kts 158°
2026-04-21 12:46 40.45161 -74.23098 17249 ft 420 kts 159°
2026-04-21 12:46 40.42445 -74.21647 17782 ft 424 kts 160°
2026-04-21 12:46 40.39698 -74.20239 18305 ft 428 kts 160°
2026-04-21 12:46 40.36903 -74.18847 18824 ft 432 kts 161°
2026-04-21 12:47 40.34068 -74.17464 19311 ft 437 kts 163°
2026-04-21 12:47 40.31121 -74.16616 19764 ft 437 kts 179°
2026-04-21 12:47 40.28112 -74.16755 20273 ft 432 kts 195°
2026-04-21 12:47 40.25200 -74.17574 20801 ft 432 kts 200°
2026-04-21 12:48 40.22255 -74.18540 21260 ft 436 kts 200°
2026-04-21 12:48 40.19309 -74.19506 21729 ft 441 kts 200°
2026-04-21 12:48 40.16315 -74.20452 22189 ft 445 kts 199°
2026-04-21 12:48 40.13292 -74.21378 22646 ft 450 kts 199°
2026-04-21 12:49 40.10226 -74.22297 23116 ft 453 kts 199°
2026-04-21 12:49 40.07163 -74.23211 23571 ft 457 kts 199°
2026-04-21 12:49 40.04059 -74.24147 23997 ft 459 kts 201°
2026-04-21 12:49 40.01051 -74.25472 24435 ft 454 kts 211°
2026-04-21 12:50 39.98299 -74.27341 24866 ft 447 kts 220°
2026-04-21 12:50 39.95752 -74.29655 25283 ft 445 kts 225°
2026-04-21 12:50 39.93286 -74.32066 25689 ft 447 kts 226°
2026-04-21 12:50 39.90792 -74.34518 26097 ft 451 kts 225°
2026-04-21 12:51 39.88259 -74.36969 26459 ft 454 kts 225°
2026-04-21 12:51 39.85712 -74.39403 26824 ft 457 kts 225°
2026-04-21 12:51 39.83220 -74.41870 27168 ft 457 kts 228°
2026-04-21 12:51 39.80808 -74.44541 27498 ft 455 kts 231°
2026-04-21 12:52 39.78540 -74.47374 27856 ft 453 kts 235°
2026-04-21 12:52 39.76358 -74.50269 28208 ft 454 kts 235°
2026-04-21 12:52 39.74161 -74.53198 28608 ft 453 kts 235°
2026-04-21 12:52 39.71954 -74.56131 29044 ft 452 kts 236°
2026-04-21 12:53 39.69764 -74.59035 29469 ft 451 kts 236°
2026-04-21 12:53 39.67576 -74.61931 29883 ft 449 kts 236°
2026-04-21 12:53 39.65403 -74.64801 30272 ft 448 kts 236°
2026-04-21 12:53 39.63208 -74.67700 30636 ft 447 kts 235°
2026-04-21 12:54 39.61042 -74.70559 30967 ft 447 kts 235°
2026-04-21 12:54 39.58880 -74.73411 31264 ft 446 kts 235°
2026-04-21 12:54 39.56717 -74.76258 31563 ft 446 kts 234°
2026-04-21 12:54 39.54552 -74.79107 31850 ft 446 kts 234°
2026-04-21 12:55 39.52379 -74.81961 32130 ft 445 kts 234°
2026-04-21 12:55 39.50194 -74.84827 32419 ft 445 kts 234°
2026-04-21 12:55 39.48042 -74.87647 32696 ft 444 kts 234°
2026-04-21 12:55 39.45865 -74.90499 32967 ft 444 kts 234°
2026-04-21 12:56 39.43717 -74.93311 33238 ft 443 kts 234°
2026-04-21 12:56 39.41563 -74.96127 33491 ft 443 kts 234°
2026-04-21 12:56 39.39375 -74.98985 33743 ft 443 kts 234°
2026-04-21 12:56 39.37243 -75.01765 33996 ft 442 kts 234°
2026-04-21 12:57 39.35061 -75.04607 34246 ft 441 kts 234°
2026-04-21 12:57 39.32926 -75.07391 34455 ft 441 kts 234°
2026-04-21 12:57 39.30772 -75.10195 34647 ft 441 kts 234°
2026-04-21 12:57 39.28579 -75.13013 34839 ft 443 kts 233°
2026-04-21 12:58 39.26378 -75.15778 35008 ft 444 kts 232°
2026-04-21 12:58 39.24159 -75.18548 35174 ft 445 kts 232°
2026-04-21 12:58 39.21956 -75.21293 35326 ft 445 kts 232°
2026-04-21 12:58 39.19733 -75.24066 35470 ft 446 kts 232°
2026-04-21 12:59 39.17495 -75.26858 35614 ft 447 kts 232°
2026-04-21 12:59 39.15281 -75.29619 35766 ft 447 kts 232°
2026-04-21 12:59 39.13038 -75.32415 35915 ft 447 kts 232°
2026-04-21 12:59 39.10819 -75.35178 36036 ft 448 kts 232°
2026-04-21 13:00 39.08468 -75.37816 36174 ft 455 kts 225°
2026-04-21 13:00 39.05835 -75.40158 36395 ft 460 kts 218°
2026-04-21 13:00 39.03011 -75.42108 36447 ft 462 kts 211°
2026-04-21 13:01 38.96903 -75.44709 36453 ft 468 kts 198°
2026-04-21 13:01 38.90427 -75.45789 36455 ft 472 kts 191°
2026-04-21 13:02 38.83875 -75.46618 36448 ft 472 kts 191°
2026-04-21 13:02 38.74089 -75.47924 36447 ft 472 kts 192°
2026-04-21 13:03 38.67573 -75.48813 36446 ft 471 kts 192°
2026-04-21 13:03 38.61102 -75.49697 36445 ft 471 kts 192°
2026-04-21 13:04 38.54552 -75.50590 36442 ft 471 kts 192°
2026-04-21 13:04 38.48068 -75.51472 36445 ft 471 kts 192°
2026-04-21 13:05 38.41579 -75.52394 36447 ft 469 kts 194°
2026-04-21 13:05 38.35296 -75.54273 36443 ft 460 kts 205°
2026-04-21 13:06 38.29504 -75.57452 36443 ft 452 kts 216°
2026-04-21 13:06 38.24198 -75.61758 36442 ft 452 kts 222°
2026-04-21 13:07 38.19035 -75.66306 36439 ft 454 kts 221°
2026-04-21 13:07 38.13829 -75.70859 36435 ft 454 kts 221°
2026-04-21 13:08 38.08640 -75.75365 36431 ft 454 kts 221°
2026-04-21 13:08 38.03448 -75.79863 36432 ft 454 kts 221°
2026-04-21 13:09 37.98232 -75.84370 36444 ft 454 kts 221°
2026-04-21 13:09 37.93005 -75.88879 36453 ft 454 kts 221°
2026-04-21 13:10 37.87817 -75.93347 36452 ft 454 kts 221°
2026-04-21 13:10 37.82602 -75.97832 36457 ft 454 kts 221°
2026-04-21 13:11 37.77385 -76.02309 36459 ft 453 kts 221°
2026-04-21 13:11 37.72196 -76.06755 36456 ft 453 kts 221°
2026-04-21 13:12 37.66961 -76.11188 36452 ft 455 kts 219°
2026-04-21 13:12 37.61396 -76.15073 36442 ft 458 kts 212°
2026-04-21 13:13 37.55516 -76.18085 36436 ft 460 kts 205°
2026-04-21 13:13 37.49363 -76.20262 36438 ft 464 kts 201°
2026-04-21 13:14 37.43118 -76.22231 36439 ft 463 kts 200°
2026-04-21 13:14 37.36857 -76.24215 36439 ft 462 kts 201°
2026-04-21 13:15 37.30660 -76.26183 36443 ft 463 kts 201°
2026-04-21 13:15 37.24405 -76.28171 36445 ft 463 kts 201°
2026-04-21 13:16 37.18185 -76.30145 36446 ft 463 kts 201°
2026-04-21 13:16 37.11923 -76.32127 36447 ft 463 kts 201°
2026-04-21 13:17 37.05698 -76.34095 36446 ft 462 kts 201°
2026-04-21 13:17 36.99473 -76.36061 36450 ft 462 kts 201°
2026-04-21 13:18 36.93235 -76.38026 36448 ft 462 kts 201°
2026-04-21 13:18 36.87000 -76.39988 36448 ft 463 kts 201°
2026-04-21 13:19 36.80799 -76.41936 36449 ft 462 kts 201°
2026-04-21 13:19 36.74604 -76.43880 36449 ft 463 kts 201°
2026-04-21 13:20 36.68351 -76.45837 36451 ft 462 kts 201°
2026-04-21 13:20 36.62153 -76.47773 36453 ft 463 kts 201°
2026-04-21 13:21 36.55941 -76.49711 36447 ft 462 kts 201°
2026-04-21 13:21 36.49671 -76.51665 36443 ft 463 kts 201°
2026-04-21 13:22 36.43449 -76.53600 36431 ft 463 kts 201°
2026-04-21 13:22 36.37215 -76.55534 36436 ft 462 kts 201°
2026-04-21 13:23 36.30981 -76.57467 36436 ft 463 kts 201°
2026-04-21 13:23 36.24742 -76.59396 36439 ft 463 kts 201°
2026-04-21 13:24 36.18502 -76.61324 36445 ft 463 kts 201°
2026-04-21 13:24 36.12259 -76.63249 36447 ft 463 kts 201°
2026-04-21 13:25 36.05981 -76.65181 36446 ft 464 kts 200°
2026-04-21 13:25 35.99721 -76.67105 36443 ft 465 kts 201°
2026-04-21 13:26 35.93464 -76.69118 36443 ft 461 kts 204°
2026-04-21 13:26 35.87540 -76.71824 36434 ft 453 kts 212°
2026-04-21 13:27 35.81888 -76.75240 36430 ft 451 kts 214°
2026-04-21 13:27 35.76309 -76.78703 36424 ft 451 kts 214°
2026-04-21 13:28 35.70717 -76.82155 36420 ft 451 kts 214°
2026-04-21 13:28 35.65076 -76.85622 36425 ft 452 kts 214°
2026-04-21 13:29 35.59472 -76.89060 36429 ft 451 kts 214°
2026-04-21 13:29 35.53865 -76.92493 36430 ft 451 kts 214°
2026-04-21 13:30 35.48273 -76.95913 36428 ft 451 kts 214°
2026-04-21 13:30 35.42655 -76.99342 36428 ft 451 kts 214°
2026-04-21 13:31 35.37056 -77.02756 36425 ft 451 kts 214°
2026-04-21 13:31 35.31432 -77.06176 36425 ft 451 kts 214°
2026-04-21 13:32 35.25813 -77.09592 36426 ft 451 kts 214°
2026-04-21 13:32 35.20214 -77.12988 36421 ft 451 kts 214°
2026-04-21 13:33 35.14607 -77.16382 36422 ft 450 kts 214°
2026-04-21 13:33 35.08995 -77.19776 36421 ft 450 kts 214°
2026-04-21 13:34 35.03425 -77.23141 36420 ft 450 kts 214°
2026-04-21 13:34 34.97792 -77.26538 36422 ft 450 kts 214°
2026-04-21 13:35 34.92194 -77.29907 36421 ft 450 kts 214°
2026-04-21 13:35 34.86590 -77.33276 36408 ft 450 kts 214°
2026-04-21 13:36 34.80986 -77.36639 36414 ft 450 kts 214°
2026-04-21 13:36 34.75403 -77.39983 36409 ft 449 kts 214°
2026-04-21 13:37 34.69796 -77.43338 36410 ft 449 kts 214°
2026-04-21 13:37 34.64198 -77.46683 36404 ft 449 kts 214°
2026-04-21 13:38 34.58568 -77.50040 36403 ft 449 kts 214°
2026-04-21 13:38 34.52822 -77.53017 36410 ft 455 kts 208°
2026-04-21 13:39 34.46717 -77.55178 36406 ft 462 kts 200°
2026-04-21 13:39 34.40335 -77.56638 36398 ft 465 kts 198°
2026-04-21 13:40 34.33970 -77.58018 36389 ft 465 kts 198°
2026-04-21 13:40 34.27632 -77.59405 36388 ft 465 kts 198°
2026-04-21 13:41 34.21252 -77.60806 36389 ft 465 kts 198°
2026-04-21 13:41 34.14903 -77.62202 36385 ft 465 kts 198°
2026-04-21 13:42 34.08546 -77.63598 36374 ft 465 kts 198°
2026-04-21 13:42 34.02159 -77.65000 36379 ft 466 kts 198°
2026-04-21 13:43 33.95787 -77.66395 36379 ft 466 kts 197°
2026-04-21 13:43 33.89399 -77.67790 36358 ft 467 kts 197°
2026-04-21 13:44 33.83038 -77.69175 36355 ft 467 kts 198°
2026-04-21 13:44 33.76656 -77.70565 36344 ft 467 kts 198°
2026-04-21 13:45 33.70261 -77.71958 36357 ft 466 kts 198°
2026-04-21 13:45 33.64011 -77.73781 36345 ft 461 kts 203°
2026-04-21 13:46 33.57810 -77.75825 36362 ft 462 kts 203°
2026-04-21 13:46 33.51641 -77.77848 36357 ft 461 kts 203°
2026-04-21 13:47 33.45459 -77.79868 36355 ft 461 kts 203°
2026-04-21 13:47 33.39254 -77.81890 36350 ft 461 kts 203°
2026-04-21 13:48 33.33085 -77.83894 36334 ft 461 kts 203°
2026-04-21 13:48 33.26903 -77.85902 36335 ft 461 kts 203°
2026-04-21 13:49 33.20729 -77.87904 36341 ft 461 kts 203°
2026-04-21 13:49 33.14519 -77.89914 36331 ft 461 kts 203°
2026-04-21 13:50 33.08342 -77.91911 36335 ft 460 kts 203°
2026-04-21 13:50 33.02187 -77.93919 36323 ft 460 kts 204°
2026-04-21 13:51 32.96055 -77.96027 36332 ft 459 kts 205°
2026-04-21 13:51 32.89927 -77.98137 36339 ft 460 kts 205°
2026-04-21 13:52 32.83774 -78.00241 36334 ft 459 kts 205°
2026-04-21 13:52 32.77663 -78.02327 36324 ft 458 kts 205°
2026-04-21 13:53 32.71502 -78.04424 36324 ft 459 kts 205°
2026-04-21 13:53 32.65376 -78.06509 36326 ft 459 kts 205°
2026-04-21 13:54 32.59260 -78.08585 36320 ft 458 kts 205°
2026-04-21 13:54 32.53140 -78.10658 36318 ft 458 kts 205°
2026-04-21 13:55 32.47015 -78.12731 36323 ft 457 kts 205°
2026-04-21 13:55 32.40892 -78.14803 36315 ft 457 kts 205°
2026-04-21 13:56 32.34816 -78.16853 36304 ft 456 kts 205°
2026-04-21 13:56 32.28717 -78.18911 36314 ft 457 kts 205°
2026-04-21 13:57 32.22592 -78.20972 36319 ft 456 kts 205°
2026-04-21 13:57 32.16505 -78.23016 36307 ft 454 kts 205°
2026-04-21 13:58 32.10455 -78.25049 36305 ft 454 kts 205°
2026-04-21 13:58 32.04373 -78.27089 36308 ft 455 kts 205°
2026-04-21 13:59 31.98280 -78.29128 36305 ft 453 kts 205°
2026-04-21 13:59 31.92205 -78.31158 36312 ft 453 kts 205°
2026-04-21 14:00 31.86165 -78.33174 36325 ft 453 kts 205°
2026-04-21 14:00 31.80104 -78.35195 36322 ft 453 kts 205°
2026-04-21 14:01 31.74065 -78.37205 36320 ft 453 kts 205°
2026-04-21 14:01 31.68004 -78.39219 36325 ft 452 kts 205°
2026-04-21 14:02 31.61948 -78.41229 36334 ft 452 kts 205°
2026-04-21 14:03 31.52886 -78.44233 36327 ft 451 kts 205°
2026-04-21 14:03 31.46859 -78.46203 36321 ft 450 kts 205°
2026-04-21 14:04 31.40811 -78.48164 36323 ft 450 kts 205°
2026-04-21 14:04 31.34800 -78.50113 36320 ft 450 kts 205°
2026-04-21 14:05 31.28779 -78.52061 36324 ft 449 kts 205°
2026-04-21 14:05 31.22757 -78.54007 36322 ft 449 kts 205°
2026-04-21 14:06 31.16711 -78.55961 36328 ft 449 kts 205°
2026-04-21 14:06 31.10699 -78.57897 36327 ft 448 kts 205°
2026-04-21 14:07 31.04719 -78.59824 36324 ft 447 kts 205°
2026-04-21 14:07 30.98711 -78.61758 36321 ft 447 kts 205°
2026-04-21 14:08 30.92747 -78.63673 36324 ft 447 kts 205°
2026-04-21 14:08 30.86762 -78.65592 36320 ft 447 kts 205°
2026-04-21 14:09 30.80740 -78.67523 36305 ft 447 kts 204°
2026-04-21 14:09 30.74749 -78.69440 36309 ft 447 kts 205°
2026-04-21 14:10 30.68753 -78.71356 36307 ft 447 kts 204°
2026-04-21 14:10 30.62778 -78.73264 36310 ft 447 kts 204°
2026-04-21 14:11 30.56770 -78.75178 36305 ft 447 kts 204°
2026-04-21 14:11 30.50769 -78.77088 36308 ft 447 kts 204°
2026-04-21 14:12 30.44790 -78.78989 36314 ft 447 kts 204°
2026-04-21 14:12 30.38802 -78.80889 36312 ft 447 kts 204°
2026-04-21 14:13 30.32799 -78.82793 36320 ft 446 kts 204°
2026-04-21 14:13 30.26806 -78.84692 36312 ft 446 kts 204°
2026-04-21 14:14 30.20812 -78.86587 36331 ft 446 kts 204°
2026-04-21 14:14 30.14834 -78.88474 36331 ft 446 kts 204°
2026-04-21 14:15 30.08844 -78.90365 36325 ft 446 kts 204°
2026-04-21 14:15 30.02873 -78.92245 36327 ft 446 kts 204°
2026-04-21 14:16 29.96887 -78.94129 36338 ft 446 kts 205°
2026-04-21 14:16 29.90924 -78.96004 36344 ft 445 kts 204°
2026-04-21 14:17 29.84898 -78.97894 36346 ft 446 kts 204°
2026-04-21 14:17 29.78843 -78.99548 36331 ft 450 kts 199°
2026-04-21 14:18 29.72724 -79.00697 36320 ft 447 kts 198°
2026-04-21 14:18 29.66557 -79.01833 36325 ft 448 kts 198°
2026-04-21 14:19 29.60401 -79.02967 36310 ft 447 kts 198°
2026-04-21 14:19 29.54264 -79.04099 36331 ft 448 kts 198°
2026-04-21 14:20 29.48106 -79.05232 36308 ft 448 kts 198°
2026-04-21 14:20 29.41949 -79.06365 36313 ft 448 kts 198°
2026-04-21 14:21 29.35829 -79.07488 36336 ft 448 kts 198°
2026-04-21 14:21 29.29682 -79.08617 36319 ft 448 kts 198°
2026-04-21 14:22 29.23529 -79.09745 36325 ft 448 kts 198°
2026-04-21 14:22 29.17386 -79.10868 36315 ft 448 kts 198°
2026-04-21 14:23 29.11210 -79.11997 36307 ft 447 kts 198°
2026-04-21 14:23 29.05052 -79.13122 36313 ft 447 kts 198°
2026-04-21 14:24 28.98926 -79.14238 36303 ft 447 kts 198°
2026-04-21 14:24 28.95834 -79.14803 36494 ft 448 kts 198°
2026-04-21 14:24 28.92767 -79.15362 36277 ft 447 kts 198°
2026-04-21 14:25 28.86624 -79.16478 36445 ft 447 kts 198°
2026-04-21 14:25 28.80488 -79.17593 36338 ft 446 kts 198°
2026-04-21 14:26 28.74349 -79.18707 36314 ft 446 kts 198°
2026-04-21 14:26 28.68213 -79.19818 36307 ft 446 kts 198°
2026-04-21 14:27 28.62118 -79.20921 36305 ft 445 kts 198°
2026-04-21 14:27 28.56002 -79.22028 36302 ft 445 kts 198°
2026-04-21 14:28 28.49863 -79.23135 36304 ft 445 kts 198°
2026-04-21 14:28 28.43767 -79.24233 36303 ft 445 kts 198°
2026-04-21 14:29 28.37637 -79.25338 36302 ft 445 kts 198°
2026-04-21 14:29 28.31581 -79.26614 36303 ft 441 kts 202°
2026-04-21 14:30 28.25680 -79.28469 36303 ft 442 kts 205°
2026-04-21 14:30 28.19745 -79.30404 36307 ft 442 kts 205°
2026-04-21 14:31 28.13851 -79.32317 36310 ft 442 kts 205°
2026-04-21 14:31 28.07926 -79.34236 36311 ft 442 kts 205°
2026-04-21 14:32 28.02017 -79.36147 36311 ft 442 kts 205°
2026-04-21 14:32 27.96062 -79.38069 36309 ft 442 kts 205°
2026-04-21 14:33 27.90163 -79.39973 36306 ft 442 kts 205°
2026-04-21 14:33 27.84267 -79.41876 36159 ft 443 kts 205°
2026-04-21 14:33 27.81271 -79.42845 35482 ft 446 kts 205°
2026-04-21 14:34 27.78309 -79.43806 34709 ft 450 kts 204°
2026-04-21 14:34 27.75260 -79.44791 33901 ft 454 kts 204°
2026-04-21 14:34 27.72242 -79.45764 33044 ft 458 kts 203°
2026-04-21 14:34 27.69172 -79.46753 32144 ft 462 kts 203°
2026-04-21 14:35 27.66050 -79.47755 31241 ft 466 kts 203°
2026-04-21 14:35 27.62958 -79.48745 30384 ft 468 kts 203°
2026-04-21 14:35 27.59816 -79.49753 29486 ft 471 kts 203°
2026-04-21 14:35 27.56685 -79.50756 28565 ft 473 kts 202°
2026-04-21 14:36 27.53536 -79.51765 27964 ft 467 kts 202°
2026-04-21 14:36 27.50421 -79.52756 27436 ft 461 kts 202°
2026-04-21 14:36 27.47338 -79.53738 26906 ft 455 kts 202°
2026-04-21 14:36 27.44360 -79.54685 26604 ft 444 kts 202°
2026-04-21 14:37 27.41416 -79.55620 26388 ft 431 kts 202°
2026-04-21 14:37 27.38554 -79.56529 25973 ft 424 kts 202°
2026-04-21 14:37 27.35712 -79.57428 25461 ft 420 kts 202°
2026-04-21 14:37 27.32941 -79.58303 24986 ft 415 kts 202°
2026-04-21 14:38 27.30189 -79.59170 24528 ft 410 kts 202°
2026-04-21 14:38 27.27429 -79.60040 24051 ft 406 kts 202°
2026-04-21 14:38 27.24732 -79.60887 23581 ft 402 kts 202°
2026-04-21 14:38 27.22043 -79.61734 23111 ft 398 kts 202°
2026-04-21 14:39 27.19397 -79.62566 22655 ft 394 kts 202°
2026-04-21 14:39 27.16768 -79.63403 22209 ft 390 kts 202°
2026-04-21 14:39 27.14178 -79.64235 21748 ft 388 kts 201°
2026-04-21 14:39 27.11604 -79.65063 21273 ft 385 kts 201°
2026-04-21 14:40 27.09015 -79.65895 20781 ft 384 kts 200°
2026-04-21 14:40 27.06464 -79.66713 20282 ft 383 kts 200°
2026-04-21 14:40 27.03895 -79.67535 19793 ft 381 kts 200°
2026-04-21 14:40 27.01339 -79.68352 19300 ft 380 kts 200°
2026-04-21 14:41 26.98821 -79.69157 18815 ft 378 kts 199°
2026-04-21 14:41 26.96294 -79.69962 18335 ft 377 kts 199°
2026-04-21 14:41 26.93787 -79.70763 17850 ft 375 kts 199°
2026-04-21 14:41 26.91265 -79.71566 17357 ft 374 kts 199°
2026-04-21 14:42 26.88788 -79.72352 16892 ft 371 kts 199°
2026-04-21 14:42 26.86318 -79.73137 16425 ft 369 kts 199°
2026-04-21 14:42 26.83847 -79.73923 16072 ft 363 kts 199°
2026-04-21 14:42 26.81447 -79.74686 15772 ft 355 kts 199°
2026-04-21 14:43 26.79085 -79.75434 15370 ft 352 kts 198°
2026-04-21 14:43 26.76725 -79.76180 14933 ft 350 kts 198°
2026-04-21 14:43 26.74413 -79.76909 14504 ft 348 kts 198°
2026-04-21 14:43 26.72077 -79.77646 14066 ft 345 kts 198°
2026-04-21 14:44 26.69785 -79.78403 13646 ft 343 kts 201°
2026-04-21 14:44 26.67534 -79.79295 13222 ft 340 kts 202°
2026-04-21 14:44 26.65328 -79.80197 12804 ft 339 kts 202°
2026-04-21 14:44 26.63121 -79.81103 12394 ft 337 kts 202°
2026-04-21 14:45 26.60941 -79.81996 11982 ft 334 kts 202°
2026-04-21 14:45 26.58742 -79.82893 11569 ft 332 kts 202°
2026-04-21 14:45 26.56592 -79.83771 11286 ft 326 kts 202°
2026-04-21 14:45 26.54496 -79.84676 11064 ft 317 kts 205°
2026-04-21 14:46 26.52508 -79.85604 11010 ft 305 kts 205°
2026-04-21 14:46 26.50540 -79.86533 10999 ft 304 kts 205°
2026-04-21 14:46 26.48621 -79.87437 10901 ft 300 kts 205°
2026-04-21 14:46 26.46688 -79.88348 10502 ft 300 kts 205°
2026-04-21 14:47 26.44775 -79.89249 10109 ft 300 kts 205°
2026-04-21 14:47 26.42864 -79.90147 9830 ft 295 kts 205°
2026-04-21 14:47 26.40978 -79.91033 9526 ft 291 kts 205°
2026-04-21 14:47 26.39119 -79.91911 9192 ft 289 kts 206°
2026-04-21 14:48 26.37317 -79.92918 8805 ft 288 kts 211°
2026-04-21 14:48 26.35592 -79.94016 8442 ft 287 kts 211°
2026-04-21 14:48 26.33864 -79.95133 8104 ft 285 kts 211°
2026-04-21 14:48 26.32141 -79.96246 8041 ft 286 kts 211°
2026-04-21 14:49 26.30424 -79.97352 8014 ft 287 kts 211°
2026-04-21 14:49 26.28682 -79.98469 8006 ft 288 kts 211°
2026-04-21 14:49 26.26951 -79.99578 8001 ft 288 kts 211°
2026-04-21 14:49 26.25201 -80.00702 8001 ft 287 kts 211°
2026-04-21 14:50 26.24050 -80.01442 8000 ft 288 kts 211°
2026-04-21 14:50 26.21738 -80.02927 8001 ft 287 kts 211°
2026-04-21 14:50 26.19991 -80.04049 7999 ft 288 kts 211°
2026-04-21 14:50 26.18375 -80.05340 7981 ft 285 kts 230°
2026-04-21 14:51 26.17363 -80.07198 7994 ft 281 kts 252°
2026-04-21 14:51 26.16756 -80.09248 7998 ft 281 kts 255°
2026-04-21 14:51 26.16172 -80.11344 7995 ft 281 kts 255°
2026-04-21 14:51 26.15580 -80.13413 7994 ft 281 kts 255°
2026-04-21 14:52 26.15138 -80.15520 7994 ft 280 kts 264°
2026-04-21 14:52 26.15000 -80.17681 7999 ft 279 kts 271°
2026-04-21 14:52 26.15004 -80.19829 8003 ft 279 kts 272°
2026-04-21 14:52 26.15031 -80.21980 8004 ft 279 kts 273°
2026-04-21 14:53 26.15056 -80.24126 8003 ft 279 kts 273°
2026-04-21 14:53 26.15073 -80.26289 8002 ft 279 kts 272°
2026-04-21 14:53 26.15086 -80.28446 8001 ft 279 kts 272°
2026-04-21 14:53 26.15095 -80.30610 8002 ft 278 kts 272°
2026-04-21 14:54 26.15104 -80.32766 7998 ft 277 kts 272°
2026-04-21 14:54 26.15109 -80.34908 7673 ft 278 kts 270°
2026-04-21 14:54 26.15037 -80.37044 7241 ft 280 kts 272°
2026-04-21 14:54 26.15070 -80.39221 6801 ft 277 kts 274°
2026-04-21 14:55 26.15131 -80.41337 6362 ft 272 kts 274°
2026-04-21 14:55 26.15192 -80.43417 5928 ft 268 kts 272°
2026-04-21 14:55 26.14881 -80.45427 5471 ft 264 kts 245°
2026-04-21 14:55 26.13792 -80.46989 5032 ft 258 kts 215°
2026-04-21 14:56 26.12170 -80.47758 4600 ft 250 kts 182°
2026-04-21 14:56 26.10513 -80.47536 4163 ft 238 kts 153°
2026-04-21 14:56 26.09054 -80.46713 3722 ft 230 kts 136°
2026-04-21 14:56 26.08126 -80.45372 3274 ft 216 kts 104°
2026-04-21 14:57 26.07831 -80.43811 3017 ft 200 kts 90°
2026-04-21 14:57 26.07801 -80.42333 3002 ft 188 kts 85°
2026-04-21 14:57 26.07824 -80.40862 3004 ft 187 kts 85°
2026-04-21 14:57 26.07841 -80.39428 3002 ft 188 kts 86°
2026-04-21 14:58 26.07844 -80.38018 2983 ft 174 kts 86°
2026-04-21 14:58 26.07839 -80.36712 3072 ft 167 kts 86°
2026-04-21 14:58 26.07832 -80.35413 3031 ft 167 kts 85°
2026-04-21 14:58 26.07822 -80.34128 2963 ft 167 kts 86°
2026-04-21 14:59 26.07810 -80.32838 2760 ft 167 kts 86°
2026-04-21 14:59 26.07797 -80.31552 2542 ft 162 kts 86°
2026-04-21 14:59 26.07784 -80.30347 2325 ft 151 kts 85°
2026-04-21 14:59 26.07774 -80.29224 2124 ft 139 kts 84°
2026-04-21 15:00 26.07766 -80.28185 1952 ft 133 kts 84°
2026-04-21 15:00 26.07760 -80.27165 1798 ft 133 kts 84°
2026-04-21 15:00 26.07752 -80.26133 1640 ft 132 kts 84°
2026-04-21 15:00 26.07745 -80.25119 1499 ft 132 kts 84°
2026-04-21 15:01 26.07737 -80.24098 1331 ft 132 kts 84°
2026-04-21 15:01 26.07729 -80.23083 1158 ft 131 kts 84°
2026-04-21 15:01 26.07723 -80.22078 972 ft 131 kts 85°
2026-04-21 15:01 26.07717 -80.21060 794 ft 130 kts 85°
2026-04-21 15:02 26.07710 -80.20061 639 ft 130 kts 85°
2026-04-21 15:02 26.07701 -80.19055 442 ft 129 kts 85°
2026-04-21 15:02 26.07703 -80.18062 278 ft 128 kts 84°
2026-04-21 15:02 26.07700 -80.17082 137 ft 125 kts 85°
2026-04-21 15:03 26.07696 -80.16145 14 ft 113 kts 84°
2026-04-21 15:03 26.07698 -80.15388 12 ft 75 kts 92°
2026-04-21 15:03 26.07685 -80.14919 12 ft 55 kts 90°
2026-04-21 15:03 26.07630 -80.14587 12 ft 29 kts 110°
2026-04-21 15:04 26.07572 -80.14517 12 ft 10 kts 167°
2026-04-21 15:04 26.07495 -80.14491 12 ft 9 kts 123°
2026-04-21 15:04 26.07474 -80.14417 12 ft 9 kts 137°
2026-04-21 15:04 26.07415 -80.14395 12 ft 7 kts 165°
2026-04-21 15:05 26.07395 -80.14389 12 ft 0 kts 164°